timestamp,wind_dir_avg,wind_spd_max_dir,wind_spd_avg,wind_spd_gust,battery_voltage,lat,long
2018-10-30 00:00:00+00:00,226.0,227.0,4.2,4.53,,47.59359,-54.27349
2018-10-30 00:10:00+00:00,222.0,221.0,3.96,4.24,,47.59359,-54.27349
2018-10-30 00:20:00+00:00,229.0,232.0,4.29,4.63,,47.59359,-54.27349
2018-10-30 00:30:00+00:00,223.0,223.0,3.95,4.15,,47.59359,-54.27349
2018-10-30 00:40:00+00:00,230.0,229.0,3.39,4.02,,47.59359,-54.27349
2018-10-30 00:50:00+00:00,204.0,205.0,3.83,4.53,,47.59359,-54.27349
2018-10-30 01:00:00+00:00,209.0,213.0,4.07,4.52,,47.59359,-54.27349
2018-10-30 01:10:00+00:00,248.0,247.0,3.51,3.87,,47.59359,-54.27349
2018-10-30 01:20:00+00:00,242.0,244.0,2.96,3.22,,47.59359,-54.27349
2018-10-30 01:30:00+00:00,232.0,235.0,2.53,2.92,,47.59359,-54.27349
2018-10-30 01:40:00+00:00,190.0,190.0,3.41,3.74,,47.59359,-54.27349
2018-10-30 01:50:00+00:00,207.0,208.0,4.29,4.7,,47.59359,-54.27349
2018-10-30 02:00:00+00:00,217.0,220.0,3.89,4.17,,47.59359,-54.27349
2018-10-30 02:10:00+00:00,218.0,222.0,3.48,3.71,,47.59359,-54.27349
2018-10-30 02:20:00+00:00,201.0,200.0,4.1,4.45,,47.59359,-54.27349
2018-10-30 02:30:00+00:00,211.0,212.0,4.91,5.29,,47.59359,-54.27349
2018-10-30 02:40:00+00:00,223.0,222.0,3.74,4.25,,47.59359,-54.27349
2018-10-30 02:50:00+00:00,234.0,237.0,4.84,5.32,,47.59359,-54.27349
2018-10-30 03:00:00+00:00,234.0,232.0,4.37,5.13,,47.59359,-54.27349
2018-10-30 03:10:00+00:00,237.0,239.0,5.46,6.26,,47.59359,-54.27349
2018-10-30 03:20:00+00:00,233.0,233.0,3.75,4.48,,47.59359,-54.27349
2018-10-30 03:30:00+00:00,234.0,237.0,3.19,3.56,,47.59359,-54.27349
2018-10-30 03:40:00+00:00,233.0,234.0,3.82,4.34,,47.59359,-54.27349
2018-10-30 03:50:00+00:00,228.0,233.0,3.23,3.83,,47.59359,-54.27349
2018-10-30 04:00:00+00:00,224.0,221.0,3.59,4.07,,47.59359,-54.27349
2018-10-30 04:10:00+00:00,219.0,223.0,3.53,4.09,,47.59359,-54.27349
2018-10-30 04:20:00+00:00,241.0,237.0,3.54,4.04,,47.59359,-54.27349
2018-10-30 04:30:00+00:00,228.0,232.0,2.23,2.58,,47.59359,-54.27349
2018-10-30 04:40:00+00:00,229.0,231.0,2.5,2.77,,47.59359,-54.27349
2018-10-30 04:50:00+00:00,266.0,266.0,3.24,3.47,,47.59359,-54.27349
2018-10-30 05:00:00+00:00,262.0,262.0,2.68,2.86,,47.59359,-54.27349
2018-10-30 05:10:00+00:00,237.0,238.0,2.9,3.08,,47.59359,-54.27349
2018-10-30 05:20:00+00:00,238.0,246.0,1.23,1.51,,47.59359,-54.27349
2018-10-30 05:30:00+00:00,252.0,256.0,0.81,0.99,,47.59359,-54.27349
2018-10-30 05:40:00+00:00,302.0,302.0,2.71,2.98,,47.59359,-54.27349
2018-10-30 05:50:00+00:00,274.0,274.0,3.18,3.36,,47.59359,-54.27349
2018-10-30 06:00:00+00:00,268.0,268.0,1.63,1.77,,47.59359,-54.27349
2018-10-30 06:10:00+00:00,295.0,302.0,1.08,1.23,,47.59359,-54.27349
2018-10-30 06:20:00+00:00,251.0,255.0,0.99,1.14,,47.59359,-54.27349
2018-10-30 06:30:00+00:00,209.0,206.0,1.3,1.54,,47.59359,-54.27349
2018-10-30 06:40:00+00:00,231.0,233.0,0.99,1.1,,47.59359,-54.27349
2018-10-30 06:50:00+00:00,214.0,214.0,0.86,1.0,,47.59359,-54.27349
2018-10-30 07:00:00+00:00,185.0,182.0,0.76,0.81,,47.59359,-54.27349
2018-10-30 07:10:00+00:00,151.0,155.0,1.12,1.21,,47.59359,-54.27349
2018-10-30 07:20:00+00:00,178.0,178.0,1.45,1.51,,47.59359,-54.27349
2018-10-30 07:30:00+00:00,147.0,142.0,0.5,0.65,,47.59359,-54.27349
2018-10-30 07:40:00+00:00,8.0,10.0,0.99,1.08,,47.59359,-54.27349
2018-10-30 07:50:00+00:00,12.0,17.0,1.11,1.19,,47.59359,-54.27349
2018-10-30 08:00:00+00:00,35.0,36.0,2.05,2.17,,47.59359,-54.27349
2018-10-30 08:10:00+00:00,36.0,37.0,2.73,2.97,,47.59359,-54.27349
2018-10-30 08:20:00+00:00,44.0,45.0,3.61,3.86,,47.59359,-54.27349
2018-10-30 08:30:00+00:00,48.0,50.0,3.33,3.56,,47.59359,-54.27349
2018-10-30 08:40:00+00:00,54.0,53.0,3.73,3.98,,47.59359,-54.27349
2018-10-30 08:50:00+00:00,50.0,47.0,3.47,3.69,,47.59359,-54.27349
2018-10-30 09:00:00+00:00,49.0,52.0,2.49,2.82,,47.59359,-54.27349
2018-10-30 09:10:00+00:00,109.0,110.0,1.73,2.49,,47.59359,-54.27349
2018-10-30 09:20:00+00:00,129.0,106.0,1.52,2.72,,47.59359,-54.27349
2018-10-30 09:30:00+00:00,87.0,92.0,1.98,2.7,,47.59359,-54.27349
2018-10-30 09:40:00+00:00,42.0,40.0,2.3,2.46,,47.59359,-54.27349
2018-10-30 09:50:00+00:00,43.0,45.0,3.04,3.34,,47.59359,-54.27349
2018-10-30 10:00:00+00:00,47.0,51.0,3.1,3.52,,47.59359,-54.27349
2018-10-30 10:10:00+00:00,53.0,53.0,3.53,3.84,,47.59359,-54.27349
2018-10-30 10:20:00+00:00,36.0,34.0,3.29,3.76,,47.59359,-54.27349
2018-10-30 15:20:00+00:00,101.0,97.0,1.03,1.47,,47.59359,-54.27349
2018-10-30 15:30:00+00:00,225.0,347.0,0.05,0.35,,47.59359,-54.27349
2018-10-30 15:40:00+00:00,67.0,61.0,0.47,0.65,,47.59359,-54.27349
2018-10-30 15:50:00+00:00,70.0,69.0,1.13,1.25,,47.59359,-54.27349
2018-10-30 16:00:00+00:00,90.0,86.0,1.96,2.17,,47.59359,-54.27349
2018-10-30 20:20:00+00:00,234.0,233.0,4.66,5.26,,47.59359,-54.27349
2018-10-30 20:30:00+00:00,259.0,258.0,3.15,3.44,,47.59359,-54.27349
2018-10-30 20:40:00+00:00,252.0,253.0,3.67,3.95,,47.59359,-54.27349
2018-10-30 20:50:00+00:00,234.0,235.0,3.83,4.43,,47.59359,-54.27349
2018-10-30 21:00:00+00:00,234.0,233.0,4.59,5.07,,47.59359,-54.27349
2018-10-30 21:10:00+00:00,235.0,236.0,2.84,3.39,,47.59359,-54.27349
2018-10-30 21:20:00+00:00,176.0,176.0,2.87,3.24,,47.59359,-54.27349
2018-10-30 21:30:00+00:00,226.0,227.0,4.04,4.36,,47.59359,-54.27349
2018-10-30 21:40:00+00:00,220.0,220.0,3.44,4.0,,47.59359,-54.27349
2018-10-30 21:50:00+00:00,215.0,220.0,3.04,3.42,,47.59359,-54.27349
2018-10-30 22:00:00+00:00,213.0,216.0,3.34,3.65,,47.59359,-54.27349
2018-10-30 22:10:00+00:00,216.0,213.0,4.81,5.43,,47.59359,-54.27349
2018-10-30 22:20:00+00:00,211.0,213.0,5.15,6.09,,47.59359,-54.27349
2018-10-30 22:30:00+00:00,230.0,233.0,4.81,5.62,,47.59359,-54.27349
2018-10-30 22:40:00+00:00,233.0,237.0,5.49,6.15,,47.59359,-54.27349
2018-10-30 22:50:00+00:00,230.0,233.0,6.14,7.29,,47.59359,-54.27349
2018-10-30 23:00:00+00:00,247.0,249.0,7.59,8.33,,47.59359,-54.27349
2018-10-30 23:10:00+00:00,239.0,240.0,6.56,7.24,,47.59359,-54.27349
2018-10-30 23:20:00+00:00,231.0,231.0,6.69,7.39,,47.59359,-54.27349
2018-10-30 23:30:00+00:00,231.0,228.0,6.92,7.47,,47.59359,-54.27349
2018-10-30 23:40:00+00:00,237.0,242.0,8.41,9.76,,47.59359,-54.27349
2018-10-30 23:50:00+00:00,235.0,232.0,7.26,8.33,,47.59359,-54.27349
